DW2959 Murcia ES current weather conditions

sailwx.info

Wind from 094 at 2 knots gusting 6

Air temperature 25.0° C
Dewpoint 15.9° C

Last reported at 2016-Jun-28 19:31 UTC.
Time now 2016-Jun-28 20:38 UTC

Location: N 38°00' W 001°02'.
View on Google Maps.

See reports from other nearby stations

  
Tides and Currents Weather Stations Pressure Air Temp Water Temp Dewpoint Dewpoint Depression Visibility Wind Speed Wind Dir Waves Ship Positions
date/time (UTC)wind fromknots sea level pressurealtimeterstation pressurevisibilityair tempwater tempwave heightnotes
2016-Jun-28 19:31 094 2 gusting 6 25.0
2016-Jun-28 19:16 075 0 gusting 4 25.0
2016-Jun-28 19:01 101 2 gusting 6 25.0
2016-Jun-28 18:47 096 4 gusting 9 25.0
2016-Jun-28 18:31 103 6 gusting 10 25.6
2016-Jun-28 18:15 109 4 gusting 9 25.6
2016-Jun-28 18:01 111 5 gusting 12 26.1
2016-Jun-28 17:45 079 3 gusting 9 26.1
2016-Jun-28 17:31 038 3 gusting 8 26.7
2016-Jun-28 17:15 089 26.7
2016-Jun-28 17:00 089 26.7
2016-Jun-28 16:46 088 26.1
2016-Jun-28 16:31 091 4 gusting 13 26.1
2016-Jun-28 16:15 090 5 gusting 12 26.1
2016-Jun-28 16:00 111 6 gusting 12 26.7
2016-Jun-28 15:45 094 6 gusting 13 26.7
2016-Jun-28 15:29 064 7 gusting 13 26.7
2016-Jun-28 15:14 084 7 gusting 12 26.7
2016-Jun-28 14:59 059 3 gusting 11 26.7
2016-Jun-28 14:44 076 6 gusting 12 27.2
2016-Jun-28 14:29 093 5 gusting 12 27.2
2016-Jun-28 14:14 111 5 gusting 12 28.3
2016-Jun-28 13:59 096 5 gusting 9 28.3
2016-Jun-28 13:44 051 4 gusting 9 28.9
2016-Jun-28 13:30 078 3 gusting 11 28.9
2016-Jun-28 13:14 086 4 gusting 13 28.9
2016-Jun-28 12:59 158 2 gusting 11 28.9
2016-Jun-28 12:44 098 6 gusting 11 28.9
2016-Jun-28 12:28 077 5 gusting 10 29.4
2016-Jun-28 12:14 062 4 gusting 10 30.0
2016-Jun-28 11:58 096 5 gusting 12 29.4
2016-Jun-28 11:43 134 3 gusting 11 30.0
2016-Jun-28 11:28 051 5 gusting 11 29.4
2016-Jun-28 11:13 066 6 gusting 12 29.4
2016-Jun-28 10:58 028 5 gusting 11 28.9
2016-Jun-28 10:43 069 2 gusting 11 28.3
2016-Jun-28 10:28 080 1 gusting 10 28.3
2016-Jun-28 10:12 092 3 gusting 13 27.8
2016-Jun-28 09:57 097 3 gusting 8 27.2
2016-Jun-28 09:43 080 0 gusting 7 26.7
2016-Jun-28 09:27 026 26.1
2016-Jun-28 09:12 044 25.6
2016-Jun-28 08:57 005 25.0
2016-Jun-28 08:41 325 2 gusting 5 24.4
2016-Jun-28 08:26 258 23.9
2016-Jun-28 08:11 258 23.3
2016-Jun-28 07:56 258 22.8
2016-Jun-28 07:41 257 0 gusting 3 22.2
2016-Jun-28 07:26 257 22.2
2016-Jun-28 07:13
2016-Jun-28 07:00 217 21.7
2016-Jun-28 06:44 229 21.7
2016-Jun-28 06:29 230 21.1
2016-Jun-28 06:14 230 21.1
2016-Jun-28 05:58 230 21.1
2016-Jun-28 05:44 273 1 gusting 6 21.1
2016-Jun-28 05:28 337 3 gusting 5 21.1
2016-Jun-28 05:14 216 21.1
2016-Jun-28 04:59 225 20.6
2016-Jun-28 04:43 234 20.6
2016-Jun-28 04:27 232 20.6
2016-Jun-28 04:12 223 20.0
2016-Jun-28 03:58 223 20.0
2016-Jun-28 03:42 223 20.0
2016-Jun-28 03:28 223 20.0
2016-Jun-28 03:12 223 20.0
2016-Jun-28 03:00 223 20.6
2016-Jun-28 02:42 223 20.0
2016-Jun-28 02:27 089 20.6
2016-Jun-28 02:11 089 20.6
2016-Jun-28 01:56 089 20.6
2016-Jun-28 01:42 085 20.6
2016-Jun-28 01:26 084 20.6
2016-Jun-28 01:11 084 20.6
2016-Jun-28 00:55 084 21.1
2016-Jun-28 00:41 084 21.1
2016-Jun-28 00:25 084 21.1
2016-Jun-28 00:11 084 21.7
2016-Jun-27 23:56 084 22.2
2016-Jun-27 23:43 084 22.2
2016-Jun-27 23:24 084 22.2
2016-Jun-27 23:10 084 22.2
2016-Jun-27 22:55 084 22.2
2016-Jun-27 22:39 084 22.2
2016-Jun-27 22:24 084 21.7
2016-Jun-27 22:09 084 21.7
2016-Jun-27 21:54 084 21.7
2016-Jun-27 21:38 084 22.2
2016-Jun-27 21:23 084 22.8
2016-Jun-27 21:09 084 22.8
2016-Jun-27 20:53 084 22.8
2016-Jun-27 20:39 084 22.8
2016-Jun-27 20:23 084 22.8
2016-Jun-27 20:08 085 23.3
2016-Jun-27 19:53 084 1 gusting 6 23.3
2016-Jun-27 19:38 088 23.9
2016-Jun-27 19:24 065 2 gusting 6 23.9
2016-Jun-27 19:08 093 3 gusting 9 23.9
2016-Jun-27 18:53 085 2 gusting 7 24.4
2016-Jun-27 18:37 088 1 gusting 9 24.4
2016-Jun-27 18:21 109 3 gusting 11 24.4
2016-Jun-27 18:06 088 5 gusting 12 25.0
2016-Jun-27 17:52 125 2 gusting 12 25.0
2016-Jun-27 17:36 088 6 gusting 13 25.6
2016-Jun-27 17:21 089 7 gusting 13 25.6
2016-Jun-27 17:06 102 6 gusting 11 26.1
2016-Jun-27 16:50 048 4 gusting 11 26.7
2016-Jun-27 16:36 107 5 gusting 12 26.7
2016-Jun-27 16:20 111 5 gusting 11 27.2
2016-Jun-27 16:08 094 3 gusting 11 27.2
2016-Jun-27 15:50 088 6 gusting 12 27.2
2016-Jun-27 15:35 077 6 gusting 11 27.8
2016-Jun-27 15:21 032 6 gusting 13 27.8
2016-Jun-27 15:05 054 5 gusting 11 27.8
2016-Jun-27 14:50 082 4 gusting 12 27.8
2016-Jun-27 14:34 120 5 gusting 11 27.8
2016-Jun-27 14:20 079 3 gusting 11 27.8
2016-Jun-27 14:05 090 5 gusting 12 27.8
2016-Jun-27 13:55 075 6 gusting 11 27.8
2016-Jun-27 13:34 081 4 gusting 12 27.8
2016-Jun-27 13:20 082 5 gusting 13 27.2
2016-Jun-27 13:03 056 5 gusting 12 27.8
2016-Jun-27 12:50 089 5 gusting 13 27.2
2016-Jun-27 12:34 070 7 gusting 13 27.2
2016-Jun-27 12:18 078 6 gusting 15 27.2
2016-Jun-27 12:03 074 6 gusting 13 27.2
2016-Jun-27 11:49 101 7 gusting 14 27.2
2016-Jun-27 11:33 034 8 gusting 14 27.8
2016-Jun-27 11:17 155 6 gusting 13 26.7
2016-Jun-27 11:03 094 5 gusting 13 26.7
2016-Jun-27 10:47 089 6 gusting 13 27.2
2016-Jun-27 10:32 039 7 gusting 15 26.7
2016-Jun-27 10:17 076 6 gusting 14 27.2
2016-Jun-27 10:01 022 4 gusting 13 26.7
2016-Jun-27 09:46 108 6 gusting 15 26.7
2016-Jun-27 09:33 087 6 gusting 13 26.1
2016-Jun-27 09:16 078 6 gusting 10 26.1
2016-Jun-27 09:01 090 3 gusting 12 26.1
2016-Jun-27 08:46 107 6 gusting 11 25.0
2016-Jun-27 08:31 169 0 gusting 3 24.4
2016-Jun-27 08:15 167 1 gusting 7 25.0
2016-Jun-27 08:01 100 0 gusting 3 25.0
2016-Jun-27 07:45 103 24.4
2016-Jun-27 07:31 111 23.9
2016-Jun-27 07:14 253 22.8
2016-Jun-27 06:59 253 22.8
2016-Jun-27 06:44 253 22.2
2016-Jun-27 06:30 253 22.2
2016-Jun-27 06:17 253 21.7
2016-Jun-27 06:00 253 21.1
2016-Jun-27 05:44 253 20.6
2016-Jun-27 05:28 253 20.6
2016-Jun-27 05:14 253 0 gusting 4 20.6
2016-Jun-27 04:59 258 20.6
2016-Jun-27 04:43 257 0 gusting 6 20.6
2016-Jun-27 04:27 151 20.0
2016-Jun-27 04:13 077 20.0
2016-Jun-27 03:58 077 20.6
2016-Jun-27 03:42 077 20.0
2016-Jun-27 03:28 074 0 gusting 2 20.6
2016-Jun-27 03:12 074 20.6
2016-Jun-27 02:56 074 20.6
2016-Jun-27 02:42 074 20.6
2016-Jun-27 02:27 074 21.1
2016-Jun-27 02:11 074 21.1
2016-Jun-27 01:58 074 21.1
2016-Jun-27 01:41 074 21.1
2016-Jun-27 01:26 074 21.7
2016-Jun-27 01:11 074 21.7
2016-Jun-27 00:55 074 21.7
2016-Jun-27 00:41 074 21.7
2016-Jun-27 00:25 074 22.2
2016-Jun-27 00:11 074 22.2
2016-Jun-26 23:55 074 22.2
2016-Jun-26 23:40 074 22.2
2016-Jun-26 23:24 074 22.2
2016-Jun-26 23:09 074 22.2
2016-Jun-26 22:55 074 22.2
2016-Jun-26 22:40 074 22.2
2016-Jun-26 22:23 074 22.8
2016-Jun-26 22:09 074 0 gusting 4 22.8
2016-Jun-26 21:54 078 22.8
2016-Jun-26 21:40 071 3 gusting 7 22.8
2016-Jun-26 21:24 078 1 gusting 8 23.3
2016-Jun-26 21:08 091 5 gusting 11 23.3
2016-Jun-26 20:53 082 5 gusting 8 23.3
2016-Jun-26 20:39 087 2 gusting 7 23.3
2016-Jun-26 20:27 078 5 gusting 9 23.3
2016-Jun-26 20:07 085 1 gusting 6 23.3